Time,TemperatureF,DewpointF,PressureIn,WindDirection,WindDirectionDegrees,WindSpeedMPH,WindSpeedGustMPH,Humidity,HourlyPrecipIn,Conditions,Clouds,dailyrainin,SoftwareType,DateUTC
2017-02-20 00:02:00,61.2,20.9,30.08,West,279,0.0,0.0,21,-0.01,,,0.00,Weather View 32 v70,2017-02-20 05:02:00,
2017-02-20 00:07:00,61.1,20.8,30.09,West,279,0.0,0.0,21,-0.01,,,0.00,Weather View 32 v70,2017-02-20 05:07:00,
2017-02-20 00:12:00,61.1,20.8,30.08,West,279,0.0,0.0,21,-0.01,,,0.00,Weather View 32 v70,2017-02-20 05:12:00,
2017-02-20 00:17:00,61.2,19.7,30.08,West,279,0.0,0.0,20,-0.01,,,0.00,Weather View 32 v70,2017-02-20 05:17:00,
2017-02-20 00:22:00,61.3,19.8,30.08,West,279,0.0,0.0,20,-0.01,,,0.00,Weather View 32 v70,2017-02-20 05:22:00,
2017-02-20 00:27:00,61.2,19.7,30.08,West,279,0.0,0.0,20,-0.01,,,0.00,Weather View 32 v70,2017-02-20 05:27:00,
2017-02-20 00:32:00,61.3,19.8,30.08,West,279,0.0,0.0,20,-0.01,,,0.00,Weather View 32 v70,2017-02-20 05:32:00,
2017-02-20 00:37:00,61.4,19.9,30.08,West,279,0.0,0.0,20,0.00,,,0.00,Weather View 32 v70,2017-02-20 05:37:00,
2017-02-20 00:42:00,61.4,19.9,30.08,West,279,0.0,0.0,20,0.00,,,0.00,Weather View 32 v70,2017-02-20 05:42:00,
2017-02-20 00:47:00,61.5,20.0,30.08,West,279,0.0,0.0,20,0.00,,,0.00,Weather View 32 v70,2017-02-20 05:47:00,
2017-02-20 00:52:00,61.6,20.1,30.09,West,279,0.0,0.0,20,0.00,,,0.00,Weather View 32 v70,2017-02-20 05:52:00,
2017-02-20 00:57:00,61.7,20.1,30.09,West,279,0.0,0.0,20,0.00,,,0.00,Weather View 32 v70,2017-02-20 05:57:00,
2017-02-20 01:02:00,61.8,20.2,30.09,West,279,0.0,0.0,20,0.00,,,0.00,Weather View 32 v70,2017-02-20 06:02:00,
2017-02-20 01:07:00,62.0,20.4,30.09,West,279,0.0,0.0,20,0.00,,,0.00,Weather View 32 v70,2017-02-20 06:07:00,
2017-02-20 01:12:00,62.1,20.5,30.09,West,279,0.0,0.0,20,0.00,,,0.00,Weather View 32 v70,2017-02-20 06:12:00,
2017-02-20 01:17:00,62.3,20.6,30.10,West,279,0.0,0.0,20,0.00,,,0.00,Weather View 32 v70,2017-02-20 06:17:00,
2017-02-20 01:22:00,62.4,20.7,30.09,West,279,0.0,0.0,20,0.00,,,0.00,Weather View 32 v70,2017-02-20 06:22:00,
2017-02-20 01:27:00,62.4,20.7,30.09,West,279,0.0,0.0,20,0.00,,,0.00,Weather View 32 v70,2017-02-20 06:27:00,
2017-02-20 01:32:00,62.3,20.6,30.09,West,279,0.0,0.0,20,0.00,,,0.00,Weather View 32 v70,2017-02-20 06:32:00,
2017-02-20 01:38:00,62.3,20.6,30.08,West,279,0.0,0.0,20,0.00,,,0.00,Weather View 32 v70,2017-02-20 06:38:00,
2017-02-20 01:43:00,62.2,20.6,30.09,West,279,0.0,0.0,20,0.00,,,0.00,Weather View 32 v70,2017-02-20 06:43:00,
2017-02-20 01:48:00,62.1,20.5,30.09,West,279,0.0,0.0,20,0.00,,,0.00,Weather View 32 v70,2017-02-20 06:48:00,
2017-02-20 01:53:00,62.0,20.4,30.08,West,279,0.0,0.0,20,0.00,,,0.00,Weather View 32 v70,2017-02-20 06:53:00,
2017-02-20 01:58:00,61.9,20.3,30.08,West,279,0.0,0.0,20,0.00,,,0.00,Weather View 32 v70,2017-02-20 06:58:00,
2017-02-20 02:03:00,61.7,20.1,30.08,West,279,0.0,0.0,20,0.00,,,0.00,Weather View 32 v70,2017-02-20 07:03:00,
2017-02-20 02:08:00,61.4,19.9,30.08,West,279,0.0,0.0,20,0.00,,,0.00,Weather View 32 v70,2017-02-20 07:08:00,
2017-02-20 02:13:00,61.3,19.8,30.08,West,279,0.0,0.0,20,0.00,,,0.00,Weather View 32 v70,2017-02-20 07:13:00,
2017-02-20 02:18:00,61.1,19.6,30.08,West,279,0.0,0.0,20,0.00,,,0.00,Weather View 32 v70,2017-02-20 07:18:00,
2017-02-20 02:23:00,60.9,19.5,30.08,West,279,0.0,0.0,20,0.00,,,0.00,Weather View 32 v70,2017-02-20 07:23:00,
2017-02-20 02:28:00,60.8,20.5,30.08,West,279,0.0,0.0,21,0.00,,,0.00,Weather View 32 v70,2017-02-20 07:28:00,
2017-02-20 02:33:00,60.5,20.3,30.08,West,279,0.0,0.0,21,0.00,,,0.00,Weather View 32 v70,2017-02-20 07:33:00,
2017-02-20 02:38:00,60.4,20.2,30.08,West,279,0.0,0.0,21,0.01,,,0.01,Weather View 32 v70,2017-02-20 07:38:00,
2017-02-20 02:43:00,60.2,20.0,30.08,West,279,0.0,0.0,21,0.01,,,0.01,Weather View 32 v70,2017-02-20 07:43:00,
2017-02-20 02:48:00,60.0,19.9,30.07,West,279,0.0,0.0,21,0.01,,,0.01,Weather View 32 v70,2017-02-20 07:48:00,
2017-02-20 02:53:00,60.0,19.9,30.07,West,279,0.0,0.0,21,0.01,,,0.01,Weather View 32 v70,2017-02-20 07:53:00,
2017-02-20 02:58:00,60.0,19.9,30.07,West,279,0.0,0.0,21,0.01,,,0.01,Weather View 32 v70,2017-02-20 07:58:00,
2017-02-20 03:03:00,60.0,19.9,30.07,West,279,0.0,0.0,21,0.01,,,0.01,Weather View 32 v70,2017-02-20 08:03:00,
2017-02-20 03:08:00,60.0,19.9,30.07,West,279,0.0,0.0,21,0.01,,,0.01,Weather View 32 v70,2017-02-20 08:08:00,
2017-02-20 03:13:00,59.9,19.8,30.08,West,279,0.0,0.0,21,0.01,,,0.01,Weather View 32 v70,2017-02-20 08:13:00,
2017-02-20 03:18:00,59.8,19.7,30.07,West,279,0.0,0.0,21,0.01,,,0.01,Weather View 32 v70,2017-02-20 08:18:00,
2017-02-20 03:23:00,59.7,19.6,30.07,West,279,0.0,0.0,21,0.01,,,0.01,Weather View 32 v70,2017-02-20 08:23:00,
2017-02-20 03:28:00,59.6,19.5,30.07,West,279,0.0,0.0,21,0.01,,,0.01,Weather View 32 v70,2017-02-20 08:28:00,
2017-02-20 03:33:00,59.5,19.5,30.07,West,279,0.0,0.0,21,0.01,,,0.01,Weather View 32 v70,2017-02-20 08:33:00,
2017-02-20 03:38:00,59.5,19.5,30.07,West,279,0.0,0.0,21,0.00,,,0.01,Weather View 32 v70,2017-02-20 08:38:00,
2017-02-20 03:43:00,59.4,19.4,30.07,West,279,0.0,0.0,21,0.00,,,0.01,Weather View 32 v70,2017-02-20 08:43:00,
2017-02-20 03:48:00,59.4,19.4,30.07,West,279,0.0,0.0,21,0.00,,,0.01,Weather View 32 v70,2017-02-20 08:48:00,
2017-02-20 03:53:00,59.4,19.4,30.07,West,279,0.0,0.0,21,0.00,,,0.01,Weather View 32 v70,2017-02-20 08:53:00,
2017-02-20 03:58:00,59.3,19.3,30.07,West,279,0.0,0.0,21,0.00,,,0.01,Weather View 32 v70,2017-02-20 08:58:00,
2017-02-20 04:03:00,59.2,19.2,30.07,West,279,0.0,0.0,21,0.00,,,0.01,Weather View 32 v70,2017-02-20 09:03:00,
2017-02-20 04:08:00,59.2,19.2,30.07,West,279,0.0,0.0,21,0.00,,,0.01,Weather View 32 v70,2017-02-20 09:08:00,
2017-02-20 04:13:00,59.1,19.1,30.07,West,279,0.0,0.0,21,0.00,,,0.01,Weather View 32 v70,2017-02-20 09:13:00,
2017-02-20 04:19:00,59.3,19.3,30.07,West,279,0.0,0.0,21,0.00,,,0.01,Weather View 32 v70,2017-02-20 09:19:00,
2017-02-20 04:24:00,59.3,19.3,30.07,West,279,0.0,0.0,21,0.00,,,0.01,Weather View 32 v70,2017-02-20 09:24:00,
2017-02-20 04:29:00,59.4,19.4,30.07,West,279,0.0,0.0,21,0.00,,,0.01,Weather View 32 v70,2017-02-20 09:29:00,
2017-02-20 04:34:00,59.5,19.5,30.07,West,279,0.0,0.0,21,0.00,,,0.01,Weather View 32 v70,2017-02-20 09:34:00,
2017-02-20 04:39:00,59.6,19.5,30.07,West,279,0.0,0.0,21,0.00,,,0.01,Weather View 32 v70,2017-02-20 09:39:00,
2017-02-20 04:44:00,59.6,19.5,30.07,West,279,0.0,0.0,21,0.00,,,0.01,Weather View 32 v70,2017-02-20 09:44:00,
2017-02-20 04:49:00,59.7,19.6,30.07,West,279,0.0,0.0,21,0.00,,,0.01,Weather View 32 v70,2017-02-20 09:49:00,
2017-02-20 04:54:00,59.6,19.5,30.07,West,279,0.0,0.0,21,0.00,,,0.01,Weather View 32 v70,2017-02-20 09:54:00,
2017-02-20 04:59:00,59.5,19.5,30.07,West,279,0.0,0.0,21,0.00,,,0.01,Weather View 32 v70,2017-02-20 09:59:00,
2017-02-20 05:04:00,59.4,19.4,30.07,West,279,0.0,0.0,21,0.00,,,0.01,Weather View 32 v70,2017-02-20 10:04:00,
2017-02-20 05:09:00,59.5,19.5,30.08,West,279,0.0,0.0,21,0.00,,,0.01,Weather View 32 v70,2017-02-20 10:09:00,
2017-02-20 05:14:00,59.6,19.5,30.08,West,279,0.0,0.0,21,0.00,,,0.01,Weather View 32 v70,2017-02-20 10:14:00,
2017-02-20 05:19:00,59.5,19.5,30.08,West,279,0.0,0.0,21,0.00,,,0.01,Weather View 32 v70,2017-02-20 10:19:00,
2017-02-20 05:24:00,59.5,19.5,30.08,West,279,0.0,0.0,21,0.00,,,0.01,Weather View 32 v70,2017-02-20 10:24:00,
2017-02-20 05:29:00,59.5,19.5,30.08,West,279,0.0,0.0,21,0.00,,,0.01,Weather View 32 v70,2017-02-20 10:29:00,
2017-02-20 05:34:00,59.4,19.4,30.08,West,279,0.0,0.0,21,0.00,,,0.01,Weather View 32 v70,2017-02-20 10:34:00,
2017-02-20 05:39:00,59.5,19.5,30.08,West,279,0.0,0.0,21,0.00,,,0.01,Weather View 32 v70,2017-02-20 10:39:00,
2017-02-20 05:44:00,59.5,19.5,30.08,West,279,0.0,0.0,21,0.00,,,0.01,Weather View 32 v70,2017-02-20 10:44:00,
2017-02-20 05:49:00,59.5,19.5,30.08,West,279,0.0,0.0,21,0.00,,,0.01,Weather View 32 v70,2017-02-20 10:49:00,
2017-02-20 05:54:00,59.4,19.4,30.08,West,279,0.0,0.0,21,0.00,,,0.01,Weather View 32 v70,2017-02-20 10:54:00,
2017-02-20 05:59:00,59.4,19.4,30.08,West,279,0.0,0.0,21,0.00,,,0.01,Weather View 32 v70,2017-02-20 10:59:00,
2017-02-20 06:04:00,59.3,19.3,30.08,West,279,0.0,0.0,21,0.00,,,0.01,Weather View 32 v70,2017-02-20 11:04:00,
2017-02-20 06:09:00,59.1,19.1,30.08,West,279,0.0,0.0,21,0.00,,,0.01,Weather View 32 v70,2017-02-20 11:09:00,
2017-02-20 06:14:00,59.1,19.1,30.08,West,279,0.0,0.0,21,0.00,,,0.01,Weather View 32 v70,2017-02-20 11:14:00,
2017-02-20 06:19:00,59.3,19.3,30.08,West,279,0.0,0.0,21,0.00,,,0.01,Weather View 32 v70,2017-02-20 11:19:00,
2017-02-20 06:24:00,59.4,19.4,30.08,West,279,0.0,0.0,21,0.00,,,0.01,Weather View 32 v70,2017-02-20 11:24:00,
2017-02-20 06:29:00,59.3,19.3,30.09,West,279,0.0,0.0,21,0.00,,,0.01,Weather View 32 v70,2017-02-20 11:29:00,
2017-02-20 06:34:00,59.3,19.3,30.09,West,279,0.0,0.0,21,0.00,,,0.01,Weather View 32 v70,2017-02-20 11:34:00,
2017-02-20 06:39:00,59.3,19.3,30.09,West,279,0.0,0.0,21,0.00,,,0.01,Weather View 32 v70,2017-02-20 11:39:00,
2017-02-20 06:44:00,59.3,19.3,30.10,West,279,0.0,0.0,21,0.00,,,0.01,Weather View 32 v70,2017-02-20 11:44:00,
2017-02-20 06:49:00,59.2,19.2,30.10,West,279,0.0,0.0,21,0.00,,,0.01,Weather View 32 v70,2017-02-20 11:49:00,
2017-02-20 06:54:00,59.0,20.1,30.10,West,279,0.0,0.0,22,0.00,,,0.01,Weather View 32 v70,2017-02-20 11:54:00,
2017-02-20 06:59:00,59.0,20.1,30.10,West,279,0.0,0.0,22,0.00,,,0.01,Weather View 32 v70,2017-02-20 11:59:00,
2017-02-20 07:04:00,59.0,20.1,30.10,West,279,0.0,0.0,22,0.00,,,0.01,Weather View 32 v70,2017-02-20 12:04:00,
2017-02-20 07:09:00,58.8,20.0,30.11,West,279,0.0,0.0,22,0.00,,,0.01,Weather View 32 v70,2017-02-20 12:09:00,
2017-02-20 07:14:00,58.6,19.8,30.11,West,279,0.0,0.0,22,0.00,,,0.01,Weather View 32 v70,2017-02-20 12:14:00,
2017-02-20 07:19:00,58.4,19.6,30.11,West,279,0.0,0.0,22,0.00,,,0.01,Weather View 32 v70,2017-02-20 12:19:00,
2017-02-20 07:24:00,58.3,19.5,30.11,West,279,0.0,0.0,22,0.00,,,0.01,Weather View 32 v70,2017-02-20 12:24:00,
2017-02-20 07:29:00,58.4,19.6,30.11,West,279,0.0,0.0,22,0.00,,,0.01,Weather View 32 v70,2017-02-20 12:29:00,
2017-02-20 07:34:00,58.9,20.0,30.11,NNE,26,0.0,0.0,22,0.00,,,0.01,Weather View 32 v70,2017-02-20 12:34:00,
2017-02-20 07:39:00,59.3,19.3,30.11,NNE,26,0.0,0.0,21,0.00,,,0.01,Weather View 32 v70,2017-02-20 12:39:00,
2017-02-20 07:44:00,60.0,19.9,30.11,NNE,26,0.0,0.0,21,0.00,,,0.01,Weather View 32 v70,2017-02-20 12:44:00,
2017-02-20 07:49:00,60.2,20.0,30.11,NNE,26,0.0,0.0,21,0.00,,,0.01,Weather View 32 v70,2017-02-20 12:49:00,
2017-02-20 07:54:00,60.7,20.5,30.12,NNE,26,0.0,0.0,21,0.00,,,0.01,Weather View 32 v70,2017-02-20 12:54:00,
2017-02-20 07:59:00,61.1,20.8,30.12,NNE,26,0.0,0.0,21,0.00,,,0.01,Weather View 32 v70,2017-02-20 12:59:00,
2017-02-20 08:04:00,61.7,21.3,30.12,NNE,26,0.0,0.0,21,0.00,,,0.01,Weather View 32 v70,2017-02-20 13:04:00,
2017-02-20 08:09:00,62.3,20.6,30.12,NNE,26,0.0,0.0,20,0.00,,,0.01,Weather View 32 v70,2017-02-20 13:09:00,
2017-02-20 08:14:00,63.1,21.3,30.12,NNE,26,0.0,0.0,20,0.00,,,0.01,Weather View 32 v70,2017-02-20 13:14:00,
2017-02-20 08:19:00,64.1,22.1,30.12,NNE,26,0.0,0.0,20,0.00,,,0.01,Weather View 32 v70,2017-02-20 13:19:00,
2017-02-20 08:24:00,64.8,22.7,30.12,NNE,26,0.0,0.0,20,0.00,,,0.01,Weather View 32 v70,2017-02-20 13:24:00,
2017-02-20 08:29:00,65.5,23.3,30.12,NNE,26,0.0,0.0,20,0.00,,,0.01,Weather View 32 v70,2017-02-20 13:29:00,
2017-02-20 08:30:00,65.6,23.4,30.13,NNE,26,0.0,0.0,20,0.00,,,0.01,Weather View 32 v70,2017-02-20 13:30:00,
2017-02-20 08:34:00,66.0,22.5,30.13,NNE,26,0.0,0.0,19,0.00,,,0.01,Weather View 32 v70,2017-02-20 13:34:00,
2017-02-20 08:39:00,66.5,22.9,30.13,NNE,27,1.0,2.0,19,0.00,,,0.01,Weather View 32 v70,2017-02-20 13:39:00,
2017-02-20 08:44:00,66.7,23.0,30.12,NNE,32,0.0,3.0,19,0.00,,,0.01,Weather View 32 v70,2017-02-20 13:44:00,
2017-02-20 08:49:00,66.7,23.0,30.12,NNE,32,0.0,3.0,19,0.00,,,0.01,Weather View 32 v70,2017-02-20 13:49:00,
2017-02-20 08:54:00,66.7,23.0,30.12,NNE,32,0.0,3.0,19,0.00,,,0.01,Weather View 32 v70,2017-02-20 13:54:00,
2017-02-20 08:59:00,66.7,23.0,30.12,NNE,32,0.0,3.0,19,0.00,,,0.01,Weather View 32 v70,2017-02-20 13:59:00,
2017-02-20 09:04:00,66.7,23.0,30.12,NNE,32,0.0,3.0,19,0.00,,,0.01,Weather View 32 v70,2017-02-20 14:04:00,
2017-02-20 09:09:00,70.1,55.1,30.13,SE,125,4.0,7.0,59,0.00,,,0.01,Weather View 32 v70,2017-02-20 14:09:00,